Location: Lowman
(44.0835°N, 115.6207°W)
Time: 19:45:28
(UTC+00:00)

BlueWalker 3 - Visible Passes

Search period start: 08 December 2022 00:00
Search period end: 18 December 2022 00:00
Orbit: 501 x 518 km, 53.2° (Epoch: 08 December)

Date Brightness Start Highest point End Pass type
(mag) Time Alt. Az. Time Alt. Az. Time Alt. Az.
08 Dec 2.4 01:38:55 10° NW 01:42:39 42° NNE 01:43:20 38° NE visible
08 Dec 5.1 03:17:40 10° WNW 03:18:11 13° WNW 03:18:11 13° WNW visible
09 Dec 2.4 01:20:30 10° NW 01:24:15 43° NNE 01:26:07 25° E visible
09 Dec 4.4 02:59:18 10° WNW 03:00:59 22° W 03:00:59 22° W visible
10 Dec 2.3 01:02:04 10° NW 01:05:51 45° NNE 01:09:05 13° E visible
10 Dec 3.6 02:40:55 10° WNW 02:43:58 32° WSW 02:43:58 32° WSW visible
11 Dec 2.3 00:43:38 10° NW 00:47:27 47° NNE 00:51:13 10° ESE visible
11 Dec 3.6 02:22:32 10° WNW 02:26:00 31° SW 02:27:14 25° S visible
12 Dec 3.8 02:04:09 10° WNW 02:07:33 29° SW 02:10:56 10° SSE visible
13 Dec 4.1 01:45:46 10° WNW 01:49:06 27° SW 01:52:25 10° SSE visible
14 Dec 4.3 01:27:23 10° WNW 01:30:39 26° SW 01:33:53 10° S visible
15 Dec 4.5 01:09:00 10° WNW 01:12:10 24° SW 01:15:20 10° S visible
16 Dec 4.8 00:50:36 10° W 00:53:42 23° SW 00:56:47 10° S visible
17 Dec 5.0 00:32:13 10° W 00:35:13 21° SW 00:38:13 10° S visible
